Hourly Data Report for February 13, 2003

TORONTO CITY
ONTARIO

43°40'00.000" N
79°24'00.000" W
112.50 m
6158355
71508
XTO

Download Data

Hourly Data (February 2003)
Hourly Data Report for February 13, 2003
TIME
LST
Temp Definition
°C
Dew Point Definition
°C
Rel Hum Definition
%
Precip. Amount Definition
mm

Wind Dir Definition
10's deg

Wind Spd Definition
km/h
Visibility Definition
km
Stn Press Definition
kPa
Hmdx Definition


Wind Chill Definition


Weather Definition


00:00 -12.9 -16.0 78     0 LegendMM 99.92     LegendNANA
01:00
02:00 -12.6 -15.3 80     0 LegendMM 99.95     LegendNANA
03:00 -12.6 -15.7 78     0 LegendMM 99.98     LegendNANA
04:00 -12.7 -17.3 68     0 LegendMM 99.99     LegendNANA
05:00 -13.4 -17.8 69     0 LegendMM 100.02     LegendNANA
06:00 -13.4 -18.5 65     0 LegendMM 100.02     LegendNANA
07:00 -13.6 -18.2 68     0 LegendMM 100.02     LegendNANA
08:00 -13.4 -17.6 71     0 LegendMM 100.06     LegendNANA
09:00 -12.2 -17.3 66     0 LegendMM 100.10     LegendNANA
10:00
11:00 -11.6 -16.2 69     0 LegendMM 100.17     LegendNANA
12:00 -10.8 -16.4 63     0 LegendMM 100.15     LegendNANA
13:00 -9.7 -14.4 69     0 LegendMM 100.10     LegendNANA
14:00 -9.3 -15.9 59     0 LegendMM 100.06     LegendNANA
15:00 -10.3 -15.0 68     0 LegendMM 100.06     LegendNANA
16:00 -9.2 -14.8 64     0 LegendMM 100.08     LegendNANA
17:00 -9.6 -15.0 65     0 LegendMM 100.14     LegendNANA
18:00 -9.9 -17.8 52     0 LegendMM 100.20     LegendNANA
19:00 -10.3 -18.4 51     0 LegendMM 100.29     LegendNANA
20:00 -10.6 -17.8 55     0 LegendMM 100.31     LegendNANA
21:00 -10.9 -17.4 59     0 LegendMM 100.30     LegendNANA
22:00 -11.1 -16.8 63     0 LegendMM 100.33     LegendNANA
23:00 -11.4 -15.9 69     0 LegendMM 100.34     LegendNANA

Notes on Data Quality.

Legend

  • E = Estimated
  • M = Missing
  • NA = Not Available*
  • [empty] = Indicates an unobserved value
Date modified: